Powrót do katalogu

KUIPER-00512

AktywnyŁącznośćLEO
NORAD 68889·PAYLOAD·🇺🇸 United States

Wystrzelony Apr 28, 2026 z Cape Canaveral Space Force Station

Loading…

Następne Przeloty (najbliższe 24 godziny)

TLE

ŚwieżeSource: CelesTrak SupGP

Epoka: Sep 14, 2026, 22:27 UTC

1 68889C 26095AB  26257.93589120 -.00017077  00000+0 -22356-2 0  2570
2 68889  51.9007 211.3022 0000872  72.0845  38.0389 14.79946317    10

Śledź KUIPER-00512 w czasie rzeczywistym z AllMySat

Download on the App Store